Terug naar catalogus

STARLINK-2591

ActiefCommunicatieVLEO
NORAD 48361·PAYLOAD·🇺🇸 United States

Gelanceerd May 4, 2021 vanaf Cape Canaveral Space Force Station

Loading…

Volgende Passages (komende 24 uur)

TLE

VersSource: CelesTrak SupGP

Epoch: Sep 15, 2026, 01:46 UTC

1 48361C 21038J   26258.07409722 -.00020333  00000+0 -65429-3 0  2589
2 48361  53.1584 196.7928 0001687 101.1530 264.7033 15.31690843    11

Volg STARLINK-2591 in realtime met AllMySat

Download on the App Store